Overview Statistics Trail Chart Weather Telemetry Raw packets
 

This is the latest recevied weather packets stored in our database for station/object N7WGJ. If no packets are shown the sender has not sent any weather packets the latest 10 day(s).

<< 25 26 27 28 29 30 31 >>
Time Temp. Humidity Pressure Rain* Wind** Luminosity Snow
1788306685 17.22° C 84% 1010.5 hPa 0 mm - - -
1788306082 16.67° C 85% 1010.5 hPa 0 mm - - -
1788305482 16.67° C 86% 1010.5 hPa 0 mm - - -
1788304887 17.22° C 85% 1010.6 hPa 0 mm - - -
1788304289 17.78° C 83% 1010.6 hPa 0 mm - - -
1788303704 18.33° C 82% 1010.4 hPa 0 mm - - -
1788303099 18.33° C 81% 1010.5 hPa 0 mm - - -
1788302486 17.78° C 83% 1010.5 hPa 0 mm - - -
1788301886 17.22° C 85% 1010.5 hPa 0 mm - - -
1788301302 17.22° C 85% 1010.6 hPa 0 mm - - -
1788300702 17.22° C 85% 1010.5 hPa 0 mm - - -
1788300106 17.22° C 84% 1010.7 hPa 0 mm - - -
1788299497 17.78° C 81% 1010.6 hPa 0 mm - - -
1788298895 17.78° C 81% 1010.5 hPa 0 mm - - -
1788298300 17.78° C 82% 1010.6 hPa 0 mm - - -
1788297702 17.78° C 82% 1010.6 hPa 0 mm - - -
1788297084 17.78° C 81% 1010.6 hPa 0 mm - - -
1788296506 17.78° C 81% 1010.7 hPa 0 mm - - -
1788295895 17.78° C 80% 1010.8 hPa 0 mm - - -
1788295298 18.33° C 79% 1010.8 hPa 0 mm - - -
1788294701 18.33° C 78% 1010.8 hPa 0 mm - - -
1788294084 18.33° C 78% 1010.8 hPa 0 mm - - -
1788293500 18.89° C 76% 1010.7 hPa 0 mm - - -
1788292898 18.89° C 76% 1010.7 hPa 0 mm - - -
1788292290 18.89° C 75% 1010.7 hPa 0 mm - - -

* Rain latest hour (hover to see other rain measurements)
** Current wind speed in m/s (hover to see current wind gust speed)